Weather History for KLEB - November, 2012

Change the Weather History Date:

Sunday, November 25, 2012

  Actual Average Record
Temperature  
Mean Temperature 32 °F -  
Max Temperature 35 °F 40 °F 64 °F (2004)
Min Temperature 28 °F 25 °F 0 °F (1938)
Degree Days  
Heating Degree Days 34    
Moisture  
Dew Point 15 °F    
Average Humidity 52    
Maximum Humidity 72    
Minimum Humidity 31    
Precipitation  
Precipitation 0.00 in - - ()
Sea Level Pressure  
Sea Level Pressure 29.74 in    
Wind  
Wind Speed 8 mph (West)    
Max Wind Speed 21 mph    
Max Gust Speed 25 mph    
Visibility 10 miles    
Events Snow    
Averages and records for this station are not official NWS values.
T = Trace of Precipitation, MM = Missing Value Source: NWS Daily Summary

Daily Weather History Graph

Daily Weather History Graph

Search for Another Location

Airport or City:

Trip Planner

Search our weather history database for the weather conditions in past years. The results will help you decide how hot, cold, wet, or windy it might be!

Date:

Astronomy

Nov. 25, 2012 Rise Set
Actual Time 6:56 AM EST 4:16 PM EST
Civil Twilight 6:24 AM EST 4:47 PM EST
Nautical Twilight 5:49 AM EST 5:23 PM EST
Astronomical Twilight 5:14 AM EST 5:57 PM EST
Moon 2:34 PM EST (11/25) 4:03 AM EST (11/25)
Length of Visible Light 10h 23m
Length of Day
9h 19m
Waxing Gibbous, 93% of the Moon is Illuminated
Nov 25
Waxing Gibbous
Nov 28
Full
Dec 6
Last Quarter
Dec 13
New
Dec 20
First Quarter

Hourly Weather History & Observations

Time (EST) Temp. Windchill Dew Point Humidity Pressure Visibility Wind Dir Wind Speed Gust Speed Precip Events Conditions
12:53 AM 28.0 °F 21.7 °F 19.9 °F 72% 29.66 in 5.0 mi NNW 5.8 mph - 0.00 in Snow Light Snow
1:53 AM 28.0 °F 22.8 °F 19.9 °F 72% 29.68 in 10.0 mi Variable 4.6 mph - 0.00 in   Overcast
2:53 AM 28.9 °F 19.8 °F 16.0 °F 58% 29.68 in 10.0 mi WNW 10.4 mph 17.3 mph N/A   Overcast
3:53 AM 28.9 °F 20.4 °F 15.1 °F 56% 29.70 in 10.0 mi WNW 9.2 mph - N/A   Overcast
4:53 AM 28.9 °F 21.1 °F 14.0 °F 54% 29.72 in 10.0 mi NNW 8.1 mph - N/A   Overcast
5:53 AM 28.9 °F 23.9 °F 15.1 °F 56% 29.74 in 10.0 mi Variable 4.6 mph - N/A   Overcast
6:53 AM 28.0 °F 20.0 °F 14.0 °F 56% 29.73 in 10.0 mi WNW 8.1 mph 21.9 mph N/A   Overcast
7:53 AM 28.9 °F 21.9 °F 15.1 °F 56% 29.74 in 10.0 mi WNW 6.9 mph - N/A   Overcast
8:53 AM 28.9 °F 22.8 °F 15.1 °F 56% 29.75 in 10.0 mi WNW 5.8 mph - N/A   Overcast
9:53 AM 30.0 °F 21.1 °F 12.9 °F 49% 29.76 in 10.0 mi West 10.4 mph 17.3 mph N/A   Mostly Cloudy
10:53 AM 32.0 °F 26.4 °F 14.0 °F 48% 29.75 in 10.0 mi WNW 5.8 mph - N/A   Scattered Clouds
11:53 AM 32.0 °F 24.2 °F 12.0 °F 44% 29.73 in 10.0 mi West 9.2 mph - N/A   Clear
12:53 PM 34.0 °F 22.4 °F 7.0 °F 32% 29.71 in 10.0 mi West 20.7 mph 25.3 mph N/A   Clear
1:53 PM 35.1 °F 26.4 °F 7.0 °F 31% 29.71 in 10.0 mi West 12.7 mph 20.7 mph N/A   Clear
2:53 PM 35.1 °F 28.6 °F 10.0 °F 35% 29.71 in 10.0 mi WNW 8.1 mph 19.6 mph N/A   Partly Cloudy
3:53 PM 34.0 °F 28.8 °F 10.9 °F 38% 29.73 in 10.0 mi West 5.8 mph - N/A   Partly Cloudy
4:53 PM 33.1 °F 25.5 °F 12.9 °F 43% 29.73 in 10.0 mi WSW 9.2 mph - N/A   Clear
5:53 PM 32.0 °F 23.0 °F 15.1 °F 50% 29.75 in 10.0 mi West 11.5 mph - N/A   Clear
6:53 PM 30.9 °F 24.3 °F 16.0 °F 54% 29.78 in 10.0 mi West 6.9 mph - N/A   Clear
7:53 PM 30.9 °F 26.2 °F 16.0 °F 54% 29.78 in 10.0 mi WSW 4.6 mph - N/A   Clear
8:53 PM 30.9 °F 23.5 °F 17.1 °F 57% 29.80 in 10.0 mi West 8.1 mph - N/A   Clear
9:53 PM 32.0 °F 26.4 °F 18.0 °F 56% 29.81 in 10.0 mi West 5.8 mph - N/A   Mostly Cloudy
10:53 PM 32.0 °F 26.4 °F 18.0 °F 56% 29.81 in 10.0 mi West 5.8 mph - N/A   Mostly Cloudy
11:53 PM 28.9 °F - 18.0 °F 64% 29.82 in 10.0 mi Calm Calm - N/A   Partly Cloudy